Regional Weather Roundup
Issued by NWS Nashville, TN

Home | Current Version | Previous Version | Text Only | Print | Product List | Glossary On
Versions: 1 2 3 4 5 6 7 8 9 10 11 12 13 14 15 16 17 18 19 20 21 22 23 24 25 26 27 28 29 30 31 32 33 34 35 36 37 38 39 40 41 42 43 44 45 46 47 48 49 50
000
ASUS44 KOHX 032210
RWROHX
MIDDLE TENNESSEE HOURLY WEATHER ROUNDUP
NATIONAL WEATHER SERVICE NASHVILLE TN
500 PM CDT TUE MAY 03 2016

NOTE: "FAIR" INDICATES FEW OR NO CLOUDS BELOW 12,000 FEET WITH
NO SIGNIFICANT WEATHER AND/OR OBSTRUCTIONS TO VISIBILITY.

* THESE REPORTS ARE NOT UNDER NWS QUALITY CONTROL AND MAY NOT
  REPORT WEATHER SUCH AS PRECIPITATION AND FOG.


TNZ005>011-023>034-057-059-062>066-078-080-032300
...NORTHERN MIDDLE TENNESSEE...

CITY           SKY/WX    TMP DP  RH WIND       PRES   REMARKS
CLARKSVILLE    CLOUDY    62  45  53 NW13      29.94S
CROSSVILLE     CLOUDY    64  46  52 NW8       29.91S
NASHVILLE      PTSUNNY   64  46  52 NW8       29.93S
SMYRNA         PTSUNNY   65  49  56 N14       29.93S
SPARTA         PTSUNNY   66  50  55 VRB7      29.90S
$$
TNZ056-058-060-061-075>077-079-093>097-032300
...SOUTHERN MIDDLE TENNESSEE...

CITY           SKY/WX    TMP DP  RH WIND       PRES   REMARKS
COLUMBIA       CLOUDY    64  52  63 VRB6      29.92R
FAYETTEVILLE   MOSUNNY   68  50  52 NW7       29.90S
MCMINNVILLE    CLOUDY    64  48  55 NW10      29.91S
SHELBYVILLE    CLOUDY    66  52  59 NW10      29.92S
TULLAHOMA      PTSUNNY   64  46  52 NW10      29.91F
WINCHESTER     PTSUNNY   66  48  52 NW9       29.90S
$$


...KEY TO REMARKS...
VSB - VISIBILITY IN MILES
WCI - WIND CHILL INDEX
HX  - HEAT INDEX




USA.gov is the U.S. government's official web portal to all federal, state and local government web resources and services.